Location: Sternwarte Stuttgart
(48.7670°N, 9.1830°E)
Time: 20:47:02
(UTC+01:00)

Cosmos 2263 Rocket - Pass Details

Date: 24 January 2019
Orbit: 824 x 848 km, 71.0° (Epoch: 20 February)

Event Time Altitude Azimuth Distance (km) Brightness Sun altitude
Exits shadow 06:59:31 - 336° (NNW) 3,394 4.9 -10.5°
Reaches altitude 10° 07:02:34 10° 352° (N) 2,472 4.4 -10.0°
Maximum altitude 07:06:46 21° 40° (NE) 1,823 4.2 -9.4°
Drops below altitude 10° 07:10:55 10° 88° (E) 2,452 5.9 -8.7°
Sets 07:13:59 0° 104° (ESE) 3,377 7.7 -8.2°
